DW6214 Weather Reports


time (UTC)temp
F
wind
direction
speed
knots
gust
knots
rain 1hr
in
rain 24hr
in
rain mn
in
humidity
%
barometer
mb
20260504231045 42 111 0.0 0.9 0.00 0.00 0.00 93 1021.9
20260504230032 43 111 0.0 0.9 0.00 0.00 0.00 93 1022.0
20260504225036 42 111 0.0 1.7 0.00 0.00 0.00 92 1022.1
20260504224019 42 111 0.0 0.0 0.00 0.00 0.00 92 1022.0
20260504223027 43 111 0.0 0.0 0.00 0.00 0.00 92 1022.0
20260504222015 43 111 0.0 0.0 0.00 0.00 0.00 92 1022.0
20260504221022 43 111 0.0 0.0 0.00 0.00 0.00 92 1021.9
20260504220031 43 111 0.0 0.0 0.00 0.00 0.00 91 1022.0
20260504215016 44 111 0.0 0.0 0.00 0.00 0.00 92 1021.9
20260504214025 44 111 0.0 0.0 0.00 0.00 0.00 92 1022.0
20260504213015 44 111 0.0 0.0 0.00 0.00 0.00 91 1021.9
20260504212021 44 111 0.0 0.0 0.00 0.00 0.00 92 1021.9
20260504211028 44 111 0.0 0.0 0.00 0.00 0.00 91 1021.9
20260504210053 44 111 0.0 0.0 0.00 0.00 0.00 91 1021.8
20260504205036 45 111 0.0 0.0 0.00 0.00 0.00 90 1021.9
20260504204020 45 111 0.0 0.0 0.00 0.00 0.00 89 1021.9
20260504203031 46 111 0.0 0.0 0.00 0.00 0.00 88 1021.9
20260504202018 46 111 0.9 1.7 0.00 0.00 0.00 87 1021.9
20260504201044 46 111 1.7 3.5 0.00 0.00 0.00 86 1022.0
20260504200033 47 102 0.9 3.5 0.00 0.00 0.00 85 1022.0
20260504195034 48 158 0.9 1.7 0.00 0.00 0.00 87 1022.0
20260504194019 48 158 0.9 2.6 0.00 0.00 0.00 86 1022.0
20260504193024 49 158 0.0 0.0 0.00 0.00 0.00 85 1022.0
20260504192013 49 158 0.0 0.9 0.00 0.00 0.00 86 1022.1
20260504191023 49 158 0.0 0.9 0.00 0.00 0.00 84 1022.0
20260504190032 49 158 0.9 4.3 0.00 0.00 0.00 85 1021.9
20260504185017 48 96 0.9 3.5 0.00 0.00 0.00 84 1021.8
20260504184019 48 111 1.7 2.6 0.00 0.00 0.00 83 1021.6
20260504183027 49 111 0.9 2.6 0.00 0.00 0.00 83 1021.5
20260504181024 49 150 0.0 2.6 0.00 0.00 0.00 80 1021.3
20260504180032 50 150 0.9 2.6 0.00 0.00 0.00 80 1021.2
20260504175015 50 150 0.9 2.6 0.00 0.00 0.00 79 1021.0
20260504174023 49 157 1.7 3.5 0.00 0.00 0.00 79 1021.0
20260504173031 50 134 0.9 2.6 0.00 0.00 0.00 79 1020.8
20260504172017 51 137 0.9 3.5 0.00 0.00 0.00 77 1020.8
20260504171023 52 306 0.0 1.7 0.00 0.00 0.00 75 1020.7
20260504151023 57 327 7.0 16.5 0.00 0.04 0.00 67 1020.6
20260504141045 59 298 7.8 13.0 0.00 0.04 0.00 59 1020.6
20260504081027 53 329 6.1 11.3 0.00 1.14 0.00 62 1022.0
20260504045038 36 92 0.0 0.0 0.00 1.14 0.00 81 1021.5
20260504044025 36 92 0.0 0.0 0.00 1.14 0.00 83 1021.5
20260504043013 35 92 0.0 0.0 0.00 1.14 0.00 84 1021.3
20260504042022 35 92 0.0 0.0 0.00 1.14 0.00 83 1021.2
20260504041025 35 92 0.0 0.0 0.00 1.14 0.00 83 1021.2
20260504040031 35 92 0.0 0.0 0.00 1.14 0.00 84 1021.0
20260504035015 35 92 0.0 0.9 0.00 1.14 0.00 83 1020.8
20260504034022 35 92 0.9 1.7 0.00 1.14 0.00 84 1020.8
20260504033031 35 92 0.0 0.0 0.00 1.14 0.00 86 1020.9
20260504032017 35 92 0.0 0.0 0.00 1.14 0.00 88 1020.8
20260504031026 34 92 0.0 0.0 0.00 1.14 0.00 88 1020.8
20260504030032 33 92 0.0 0.0 0.00 1.14 0.00 88 1020.8
20260504025017 33 92 0.0 2.6 0.00 1.14 0.00 89 1020.8
20260504024022 33 44 0.9 2.6 0.00 1.14 0.00 89 1020.8
20260504023042 32 40 0.9 3.5 0.00 1.14 0.00 88 1020.8
20260504022013 32 88 1.7 3.5 0.00 1.14 0.00 88 1020.8
20260504021023 32 40 0.9 3.5 0.00 1.14 0.00 88 1020.9
20260504020031 33 95 0.9 1.7 0.00 1.14 0.00 88 1020.8
20260504015028 32 95 0.0 1.7 0.00 1.14 0.00 87 1021.0
20260504014017 33 95 0.9 2.6 0.00 1.14 0.00 87 1021.0
20260504013045 33 91 0.0 0.0 0.00 1.14 0.00 87 1021.0
20260504012013 32 91 0.0 0.0 0.00 1.14 0.00 88 1020.8
20260504011023 32 91 0.0 0.0 0.00 1.14 0.00 86 1020.8
20260504010031 33 91 0.0 0.0 0.00 1.14 0.00 86 1020.7
20260504005017 32 91 0.0 0.0 0.00 1.14 0.00 86 1020.8
20260504004025 32 91 0.0 0.0 0.00 1.14 0.00 86 1020.7
20260504003018 32 91 0.0 0.0 0.00 1.14 0.00 85 1020.8
20260504002043 33 91 0.0 0.0 0.00 1.14 0.00 84 1020.9
20260504001024 33 91 0.0 0.0 0.00 1.14 0.00 84 1020.9
20260504000053 32 91 0.0 0.0 0.00 1.14 0.00 85 1020.9
20260503235022 33 91 0.0 2.6 0.00 1.14 0.00 85 1021.0
20260503234012 33 91 0.0 0.0 0.00 1.14 0.00 83 1021.0
20260503233038 33 91 0.0 1.7 0.00 1.14 0.00 83 1021.1
20260503232038 33 91 0.0 0.9 0.00 1.14 0.00 84 1021.1